Time,TemperatureF,DewpointF,PressureIn,WindDirection,WindDirectionDegrees,WindSpeedMPH,WindSpeedGustMPH,Humidity,HourlyPrecipIn,Conditions,Clouds,dailyrainin,SoftwareType,DateUTC
2013-12-12 00:00:00,56.2,48.0,30.27,WNW,287,0.0,3.0,74,0.00,,---,0.00,VWS V14.01,2013-12-12 05:00:00,
2013-12-12 00:01:00,56.9,49.8,30.28,NW,306,1.0,1.0,77,0.00,,---,0.00,VWS V14.01,2013-12-12 05:01:00,
2013-12-12 00:06:00,56.7,49.6,30.28,South,184,1.0,2.0,77,0.00,,---,0.00,VWS V14.01,2013-12-12 05:06:00,
2013-12-12 00:11:00,56.6,49.5,30.28,West,268,1.0,3.0,77,0.00,,---,0.00,VWS V14.01,2013-12-12 05:11:00,
2013-12-12 00:16:00,56.5,49.4,30.28,NW,318,0.0,3.0,77,0.00,,---,0.00,VWS V14.01,2013-12-12 05:16:00,
2013-12-12 00:21:00,56.5,49.4,30.28,West,281,0.0,3.0,77,0.00,,---,0.00,VWS V14.01,2013-12-12 05:21:00,
2013-12-12 00:26:00,56.3,49.2,30.28,West,278,1.0,3.0,77,0.00,,---,0.00,VWS V14.01,2013-12-12 05:26:00,
2013-12-12 00:30:00,56.3,46.3,30.26,West,280,1.0,5.0,69,0.00,,---,0.00,VWS V14.01,2013-12-12 05:30:00,
2013-12-12 00:31:00,56.3,49.2,30.28,West,277,3.0,3.0,77,0.00,,---,0.00,VWS V14.01,2013-12-12 05:31:00,
2013-12-12 00:36:00,56.3,48.8,30.28,West,277,0.0,3.0,76,0.00,,---,0.00,VWS V14.01,2013-12-12 05:36:00,
2013-12-12 00:41:00,56.3,48.8,30.28,West,277,0.0,3.0,76,0.00,,---,0.00,VWS V14.01,2013-12-12 05:41:00,
2013-12-12 00:46:00,56.3,48.8,30.27,West,277,1.0,3.0,76,0.00,,---,0.00,VWS V14.01,2013-12-12 05:46:00,
2013-12-12 00:51:00,56.3,48.5,30.27,West,277,0.0,3.0,75,0.00,,---,0.00,VWS V14.01,2013-12-12 05:51:00,
2013-12-12 00:56:00,56.2,48.4,30.27,West,277,0.0,3.0,75,0.00,,---,0.00,VWS V14.01,2013-12-12 05:56:00,
2013-12-12 01:00:00,56.2,47.3,30.26,West,277,1.0,3.0,72,0.00,,---,0.00,VWS V14.01,2013-12-12 06:00:00,
2013-12-12 01:01:00,56.2,48.0,30.27,WNW,287,2.0,2.0,74,0.00,,---,0.00,VWS V14.01,2013-12-12 06:01:00,
2013-12-12 01:06:00,56.2,47.3,30.27,West,272,2.0,2.0,72,0.00,,---,0.00,VWS V14.01,2013-12-12 06:06:00,
2013-12-12 01:11:00,56.2,46.9,30.27,West,272,1.0,2.0,71,0.00,,---,0.00,VWS V14.01,2013-12-12 06:11:00,
2013-12-12 01:16:00,56.2,46.9,30.26,West,272,1.0,2.0,71,0.00,,---,0.00,VWS V14.01,2013-12-12 06:16:00,
2013-12-12 01:21:00,56.2,46.6,30.26,West,272,1.0,2.0,70,0.00,,---,0.00,VWS V14.01,2013-12-12 06:21:00,
2013-12-12 01:26:00,56.3,46.7,30.26,West,280,1.0,5.0,70,0.00,,---,0.00,VWS V14.01,2013-12-12 06:26:00,
2013-12-12 01:30:00,56.2,47.7,30.25,West,272,0.0,2.0,73,0.00,,---,0.00,VWS V14.01,2013-12-12 06:30:00,
2013-12-12 01:31:00,56.3,46.3,30.26,West,280,1.0,1.0,69,0.00,,---,0.00,VWS V14.01,2013-12-12 06:31:00,
2013-12-12 01:36:00,56.2,46.2,30.26,West,280,1.0,2.0,69,0.00,,---,0.00,VWS V14.01,2013-12-12 06:36:00,
2013-12-12 01:41:00,56.2,46.9,30.26,West,280,0.0,2.0,71,0.00,,---,0.00,VWS V14.01,2013-12-12 06:41:00,
2013-12-12 01:46:00,56.2,46.9,30.26,WNW,294,1.0,2.0,71,0.00,,---,0.00,VWS V14.01,2013-12-12 06:46:00,
2013-12-12 01:51:00,56.2,46.9,30.26,WNW,292,0.0,2.0,71,0.00,,---,0.00,VWS V14.01,2013-12-12 06:51:00,
2013-12-12 01:55:00,56.2,47.3,30.26,WNW,291,1.0,3.0,72,0.00,,---,0.00,VWS V14.01,2013-12-12 06:55:00,
2013-12-12 02:00:00,56.2,47.3,30.26,West,277,1.0,1.0,72,0.00,,---,0.00,VWS V14.01,2013-12-12 07:00:00,
2013-12-12 02:05:00,56.2,47.3,30.26,WNW,284,1.0,2.0,72,0.00,,---,0.00,VWS V14.01,2013-12-12 07:05:00,
2013-12-12 02:10:00,56.2,47.3,30.26,West,272,1.0,2.0,72,0.00,,---,0.00,VWS V14.01,2013-12-12 07:10:00,
2013-12-12 02:15:00,56.2,47.7,30.26,West,272,0.0,2.0,73,0.00,,---,0.00,VWS V14.01,2013-12-12 07:15:00,
2013-12-12 02:20:00,56.2,47.7,30.26,West,272,0.0,2.0,73,0.00,,---,0.00,VWS V14.01,2013-12-12 07:20:00,
2013-12-12 02:25:00,56.2,47.7,30.26,West,272,0.0,2.0,73,0.00,,---,0.00,VWS V14.01,2013-12-12 07:25:00,
2013-12-12 02:30:00,56.2,47.7,30.25,West,272,0.0,2.0,73,0.00,,---,0.00,VWS V14.01,2013-12-12 07:30:00,
2013-12-12 02:35:00,56.0,47.1,30.25,West,272,0.0,2.0,72,0.00,,---,0.00,VWS V14.01,2013-12-12 07:35:00,
2013-12-12 02:40:00,56.0,47.1,30.25,West,278,0.0,2.0,72,0.00,,---,0.00,VWS V14.01,2013-12-12 07:40:00,
2013-12-12 02:45:00,56.2,47.7,30.25,West,278,0.0,2.0,73,0.00,,---,0.00,VWS V14.01,2013-12-12 07:45:00,
2013-12-12 02:50:00,56.2,47.7,30.25,West,278,1.0,2.0,73,0.00,,---,0.00,VWS V14.01,2013-12-12 07:50:00,
2013-12-12 02:55:00,56.2,47.3,30.25,West,278,0.0,2.0,72,0.00,,---,0.00,VWS V14.01,2013-12-12 07:55:00,
2013-12-12 03:00:00,56.2,47.3,30.25,West,278,1.0,1.0,72,0.00,,---,0.00,VWS V14.01,2013-12-12 08:00:00,
2013-12-12 03:05:00,56.2,47.3,30.25,West,278,1.0,1.0,72,0.00,,---,0.00,VWS V14.01,2013-12-12 08:05:00,
2013-12-12 03:10:00,56.2,47.7,30.25,West,280,1.0,3.0,73,0.00,,---,0.00,VWS V14.01,2013-12-12 08:10:00,
2013-12-12 03:15:00,56.2,47.3,30.25,West,275,2.0,3.0,72,0.00,,---,0.00,VWS V14.01,2013-12-12 08:15:00,
2013-12-12 03:20:00,56.2,47.3,30.25,West,275,2.0,3.0,72,0.00,,---,0.00,VWS V14.01,2013-12-12 08:20:00,
2013-12-12 03:25:00,56.2,47.3,30.25,West,281,1.0,3.0,72,0.00,,---,0.00,VWS V14.01,2013-12-12 08:25:00,
2013-12-12 03:30:00,56.2,46.9,30.25,WNW,299,1.0,1.0,71,0.00,,---,0.00,VWS V14.01,2013-12-12 08:30:00,
2013-12-12 03:35:00,56.2,47.3,30.25,WNW,296,0.0,2.0,72,0.00,,---,0.00,VWS V14.01,2013-12-12 08:35:00,
2013-12-12 03:40:00,56.0,47.1,30.25,West,264,1.0,2.0,72,0.00,,---,0.00,VWS V14.01,2013-12-12 08:40:00,
2013-12-12 03:45:00,56.0,47.1,30.26,West,260,2.0,2.0,72,0.00,,---,0.00,VWS V14.01,2013-12-12 08:45:00,
2013-12-12 03:50:00,56.0,46.7,30.26,WNW,284,1.0,3.0,71,0.00,,---,0.00,VWS V14.01,2013-12-12 08:50:00,
2013-12-12 03:55:00,56.0,46.7,30.26,West,277,2.0,4.0,71,0.00,,---,0.00,VWS V14.01,2013-12-12 08:55:00,
2013-12-12 04:00:00,55.9,46.3,30.26,WNW,285,2.0,3.0,70,0.00,,---,0.00,VWS V14.01,2013-12-12 09:00:00,
2013-12-12 04:05:00,55.9,46.3,30.26,WNW,285,2.0,3.0,70,0.00,,---,0.00,VWS V14.01,2013-12-12 09:05:00,
2013-12-12 04:10:00,55.9,46.3,30.26,WNW,285,1.0,3.0,70,0.00,,---,0.00,VWS V14.01,2013-12-12 09:10:00,
2013-12-12 04:15:00,55.9,46.7,30.26,WNW,285,1.0,3.0,71,0.00,,---,0.00,VWS V14.01,2013-12-12 09:15:00,
2013-12-12 04:20:00,55.7,46.1,30.26,WNW,285,1.0,3.0,70,0.00,,---,0.00,VWS V14.01,2013-12-12 09:20:00,
2013-12-12 04:25:00,55.7,46.1,30.26,WNW,292,1.0,3.0,70,0.00,,---,0.00,VWS V14.01,2013-12-12 09:25:00,
2013-12-12 04:30:00,55.6,46.0,30.26,WNW,292,0.0,0.0,70,0.00,,---,0.00,VWS V14.01,2013-12-12 09:30:00,
2013-12-12 04:35:00,55.6,46.0,30.26,WNW,292,3.0,3.0,70,0.00,,---,0.00,VWS V14.01,2013-12-12 09:35:00,
2013-12-12 04:40:00,55.6,46.0,30.26,WNW,282,0.0,3.0,70,0.00,,---,0.00,VWS V14.01,2013-12-12 09:40:00,
2013-12-12 04:45:00,55.6,45.6,30.26,WNW,284,1.0,3.0,69,0.00,,---,0.00,VWS V14.01,2013-12-12 09:45:00,
2013-12-12 04:50:00,55.4,45.4,30.26,West,281,4.0,4.0,69,0.00,,---,0.00,VWS V14.01,2013-12-12 09:50:00,
2013-12-12 04:55:00,55.4,45.0,30.26,WNW,285,2.0,4.0,68,0.00,,---,0.00,VWS V14.01,2013-12-12 09:55:00,
2013-12-12 05:00:00,55.4,45.0,30.26,WNW,285,1.0,1.0,68,0.00,,---,0.00,VWS V14.01,2013-12-12 10:00:00,
2013-12-12 05:05:00,55.4,45.0,30.26,WNW,292,1.0,3.0,68,0.00,,---,0.00,VWS V14.01,2013-12-12 10:05:00,
2013-12-12 05:10:00,55.4,45.4,30.26,WNW,291,1.0,3.0,69,0.00,,---,0.00,VWS V14.01,2013-12-12 10:10:00,
2013-12-12 05:15:00,55.3,45.3,30.27,West,281,1.0,3.0,69,0.00,,---,0.00,VWS V14.01,2013-12-12 10:15:00,
2013-12-12 05:20:00,55.1,44.0,30.27,West,277,1.0,3.0,66,0.00,,---,0.00,VWS V14.01,2013-12-12 10:20:00,
2013-12-12 05:25:00,55.1,43.6,30.27,West,270,2.0,3.0,65,0.00,,---,0.00,VWS V14.01,2013-12-12 10:25:00,
2013-12-12 05:30:00,55.1,43.2,30.27,West,270,0.0,0.0,64,0.00,,---,0.00,VWS V14.01,2013-12-12 10:30:00,
2013-12-12 05:35:00,55.1,43.6,30.27,WNW,282,1.0,3.0,65,0.00,,---,0.00,VWS V14.01,2013-12-12 10:35:00,
2013-12-12 05:40:00,55.0,43.5,30.27,West,272,1.0,3.0,65,0.00,,---,0.00,VWS V14.01,2013-12-12 10:40:00,
2013-12-12 05:45:00,55.0,43.1,30.28,WNW,289,3.0,3.0,64,0.00,,---,0.00,VWS V14.01,2013-12-12 10:45:00,
2013-12-12 05:50:00,54.8,42.9,30.28,WNW,289,0.0,3.0,64,0.00,,---,0.00,VWS V14.01,2013-12-12 10:50:00,
2013-12-12 05:55:00,54.8,42.5,30.28,WNW,288,1.0,3.0,63,0.00,,---,0.00,VWS V14.01,2013-12-12 10:55:00,
2013-12-12 06:00:00,54.7,42.8,30.28,West,281,1.0,2.0,64,0.00,,---,0.00,VWS V14.01,2013-12-12 11:00:00,
2013-12-12 06:05:00,54.5,42.2,30.28,West,267,3.0,4.0,63,0.00,,---,0.00,VWS V14.01,2013-12-12 11:05:00,
2013-12-12 06:10:00,54.4,42.1,30.28,WNW,288,0.0,4.0,63,0.00,,---,0.00,VWS V14.01,2013-12-12 11:10:00,
2013-12-12 06:15:00,54.2,41.5,30.28,West,280,0.0,4.0,62,0.00,,---,0.00,VWS V14.01,2013-12-12 11:15:00,
2013-12-12 06:20:00,54.1,41.8,30.28,West,280,1.0,4.0,63,0.00,,---,0.00,VWS V14.01,2013-12-12 11:20:00,
2013-12-12 06:25:00,53.6,40.9,30.28,WNW,294,0.0,4.0,62,0.00,,---,0.00,VWS V14.01,2013-12-12 11:25:00,
2013-12-12 06:30:00,53.3,41.0,30.29,NW,309,0.0,1.0,63,0.00,,---,0.00,VWS V14.01,2013-12-12 11:30:00,
2013-12-12 06:35:00,53.2,41.3,30.29,West,274,1.0,3.0,64,0.00,,---,0.00,VWS V14.01,2013-12-12 11:35:00,
2013-12-12 06:40:00,52.9,41.5,30.29,West,274,2.0,3.0,65,0.00,,---,0.00,VWS V14.01,2013-12-12 11:40:00,
2013-12-12 06:45:00,52.6,41.6,30.30,West,274,1.0,3.0,66,0.00,,---,0.00,VWS V14.01,2013-12-12 11:45:00,
2013-12-12 06:50:00,52.5,41.5,30.30,WNW,282,0.0,3.0,66,0.00,,---,0.00,VWS V14.01,2013-12-12 11:50:00,
2013-12-12 06:55:00,52.3,41.3,30.30,WNW,288,1.0,3.0,66,0.00,,---,0.00,VWS V14.01,2013-12-12 11:55:00,
2013-12-12 07:00:00,52.2,41.6,30.31,WNW,298,2.0,2.0,67,0.00,,---,0.00,VWS V14.01,2013-12-12 12:00:00,
2013-12-12 07:05:00,52.0,41.4,30.31,West,261,2.0,2.0,67,0.00,,---,0.00,VWS V14.01,2013-12-12 12:05:00,
2013-12-12 07:10:00,51.9,41.7,30.31,West,278,1.0,5.0,68,0.00,,---,0.00,VWS V14.01,2013-12-12 12:10:00,
2013-12-12 07:15:00,51.7,41.5,30.32,West,280,3.0,5.0,68,0.00,,---,0.00,VWS V14.01,2013-12-12 12:15:00,
2013-12-12 07:20:00,51.7,41.5,30.32,WNW,287,2.0,5.0,68,0.00,,---,0.00,VWS V14.01,2013-12-12 12:20:00,
2013-12-12 07:25:00,51.4,41.2,30.32,WNW,287,1.0,5.0,68,0.00,,---,0.00,VWS V14.01,2013-12-12 12:25:00,
2013-12-12 07:30:00,51.3,41.5,30.33,WNW,287,2.0,2.0,69,0.00,,---,0.00,VWS V14.01,2013-12-12 12:30:00,
2013-12-12 07:35:00,51.3,41.1,30.33,WNW,289,2.0,5.0,68,0.00,,---,0.00,VWS V14.01,2013-12-12 12:35:00,
2013-12-12 07:40:00,51.1,40.9,30.33,WNW,298,2.0,5.0,68,0.00,,---,0.00,VWS V14.01,2013-12-12 12:40:00,
2013-12-12 07:45:00,51.0,40.8,30.34,WNW,285,4.0,5.0,68,0.00,,---,0.00,VWS V14.01,2013-12-12 12:45:00,
2013-12-12 07:50:00,51.0,40.8,30.34,West,280,2.0,5.0,68,0.00,,---,0.00,VWS V14.01,2013-12-12 12:50:00,
2013-12-12 07:55:00,51.1,40.2,30.34,SW,236,1.0,5.0,66,0.00,,---,0.00,VWS V14.01,2013-12-12 12:55:00,
2013-12-12 08:00:00,51.1,40.2,30.35,WNW,282,2.0,2.0,66,0.00,,---,0.00,VWS V14.01,2013-12-12 13:00:00,
2013-12-12 08:05:00,51.3,40.3,30.35,WNW,288,1.0,2.0,66,0.00,,---,0.00,VWS V14.01,2013-12-12 13:05:00,
2013-12-12 08:10:00,51.4,40.4,30.35,WNW,288,2.0,2.0,66,0.00,,---,0.00,VWS V14.01,2013-12-12 13:10:00,
2013-12-12 08:15:00,51.6,40.6,30.36,West,270,0.0,2.0,66,0.00,,---,0.00,VWS V14.01,2013-12-12 13:15:00,
2013-12-12 08:20:00,51.7,40.7,30.36,West,274,1.0,3.0,66,0.00,,---,0.00,VWS V14.01,2013-12-12 13:20:00,
2013-12-12 08:25:00,51.7,39.9,30.36,WNW,296,0.0,3.0,64,0.00,,---,0.00,VWS V14.01,2013-12-12 13:25:00,
2013-12-12 08:30:00,51.9,40.5,30.37,WNW,298,2.0,2.0,65,0.00,,---,0.00,VWS V14.01,2013-12-12 13:30:00,
2013-12-12 08:35:00,52.0,40.2,30.37,WNW,288,0.0,4.0,64,0.00,,---,0.00,VWS V14.01,2013-12-12 13:35:00,
2013-12-12 08:40:00,52.2,39.6,30.37,WNW,284,1.0,6.0,62,0.00,,---,0.00,VWS V14.01,2013-12-12 13:40:00,
2013-12-12 08:45:00,52.3,40.1,30.37,West,278,1.0,6.0,63,0.00,,---,0.00,VWS V14.01,2013-12-12 13:45:00,
2013-12-12 08:50:00,52.6,40.4,30.37,NNW,336,1.0,6.0,63,0.00,,---,0.00,VWS V14.01,2013-12-12 13:50:00,
2013-12-12 08:55:00,52.8,39.7,30.37,West,280,3.0,6.0,61,0.00,,---,0.00,VWS V14.01,2013-12-12 13:55:00,
2013-12-12 09:00:00,53.1,38.7,30.37,WSW,256,2.0,2.0,58,0.00,,---,0.00,VWS V14.01,2013-12-12 14:00:00,
2013-12-12 09:05:00,53.1,38.3,30.37,NW,311,1.0,2.0,57,0.00,,---,0.00,VWS V14.01,2013-12-12 14:05:00,
2013-12-12 09:10:00,53.3,38.0,30.37,NW,304,1.0,2.0,56,0.00,,---,0.00,VWS V14.01,2013-12-12 14:10:00,
2013-12-12 09:15:00,53.6,38.8,30.37,WSW,244,2.0,3.0,57,0.00,,---,0.00,VWS V14.01,2013-12-12 14:15:00,
2013-12-12 09:20:00,53.8,37.1,30.37,West,274,1.0,3.0,53,0.00,,---,0.00,VWS V14.01,2013-12-12 14:20:00,
2013-12-12 09:25:00,54.1,37.4,30.37,West,268,0.0,5.0,53,0.00,,---,0.00,VWS V14.01,2013-12-12 14:25:00,
2013-12-12 09:30:00,54.2,36.5,30.38,West,271,0.0,1.0,51,0.00,,---,0.00,VWS V14.01,2013-12-12 14:30:00,
2013-12-12 09:35:00,54.7,36.4,30.38,West,264,2.0,3.0,50,0.00,,---,0.00,VWS V14.01,2013-12-12 14:35:00,
2013-12-12 09:40:00,54.8,36.5,30.38,NW,320,0.0,3.0,50,0.00,,---,0.00,VWS V14.01,2013-12-12 14:40:00,
2013-12-12 09:45:00,55.1,35.8,30.39,SW,230,0.0,3.0,48,0.00,,---,0.00,VWS V14.01,2013-12-12 14:45:00,
2013-12-12 09:50:00,55.4,36.1,30.39,West,264,4.0,4.0,48,0.00,,---,0.00,VWS V14.01,2013-12-12 14:50:00,
2013-12-12 09:55:00,55.9,34.9,30.39,West,278,0.0,5.0,45,0.00,,---,0.00,VWS V14.01,2013-12-12 14:55:00,
2013-12-12 10:00:00,56.2,35.2,30.38,West,275,2.0,5.0,45,0.00,,---,0.00,VWS V14.01,2013-12-12 15:00:00,
2013-12-12 10:05:00,56.2,35.2,30.38,West,275,0.0,5.0,45,0.00,,---,0.00,VWS V14.01,2013-12-12 15:05:00,
2013-12-12 10:10:00,56.5,34.3,30.38,West,277,0.0,5.0,43,0.00,,---,0.00,VWS V14.01,2013-12-12 15:10:00,
2013-12-12 10:15:00,56.7,34.5,30.38,North,0,1.0,5.0,43,0.00,,---,0.00,VWS V14.01,2013-12-12 15:15:00,
2013-12-12 10:20:00,56.9,34.1,30.38,WNW,284,3.0,5.0,42,0.00,,---,0.00,VWS V14.01,2013-12-12 15:20:00,
2013-12-12 10:25:00,57.0,33.5,30.38,West,275,1.0,5.0,41,0.00,,---,0.00,VWS V14.01,2013-12-12 15:25:00,
2013-12-12 10:30:00,57.3,34.4,30.37,NNW,330,0.0,1.0,42,0.00,,---,0.00,VWS V14.01,2013-12-12 15:30:00,
2013-12-12 10:35:00,57.5,32.8,30.37,NW,304,1.0,1.0,39,0.00,,---,0.00,VWS V14.01,2013-12-12 15:35:00,
2013-12-12 10:40:00,58.0,31.9,30.37,NW,319,2.0,2.0,37,0.00,,---,0.00,VWS V14.01,2013-12-12 15:40:00,
2013-12-12 10:45:00,58.3,32.2,30.37,North,0,1.0,3.0,37,0.00,,---,0.00,VWS V14.01,2013-12-12 15:45:00,
2013-12-12 10:50:00,58.3,33.5,30.37,NNW,346,0.0,3.0,39,0.00,,---,0.00,VWS V14.01,2013-12-12 15:50:00,
2013-12-12 10:55:00,58.6,33.1,30.37,NW,308,2.0,3.0,38,0.00,,---,0.00,VWS V14.01,2013-12-12 15:55:00,
2013-12-12 11:00:00,59.2,34.3,30.37,West,281,3.0,3.0,39,0.00,,---,0.00,VWS V14.01,2013-12-12 16:00:00,
2013-12-12 11:05:00,59.6,32.6,30.37,WNW,299,0.0,3.0,36,0.00,,---,0.00,VWS V14.01,2013-12-12 16:05:00,
2013-12-12 11:10:00,59.6,34.0,30.37,WNW,288,1.0,5.0,38,0.00,,---,0.00,VWS V14.01,2013-12-12 16:10:00,
2013-12-12 11:15:00,59.9,30.0,30.37,NW,305,2.0,7.0,32,0.00,,---,0.00,VWS V14.01,2013-12-12 16:15:00,
2013-12-12 11:20:00,59.9,31.5,30.37,WNW,291,2.0,7.0,34,0.00,,---,0.00,VWS V14.01,2013-12-12 16:20:00,
2013-12-12 11:25:00,60.5,34.1,30.37,North,353,2.0,7.0,37,0.00,,---,0.00,VWS V14.01,2013-12-12 16:25:00,
2013-12-12 11:30:00,60.9,34.5,30.36,North,0,3.0,3.0,37,0.00,,---,0.00,VWS V14.01,2013-12-12 16:30:00,
2013-12-12 11:35:00,60.9,30.1,30.36,NW,305,1.0,5.0,31,0.00,,---,0.00,VWS V14.01,2013-12-12 16:35:00,
2013-12-12 11:40:00,61.0,32.5,30.36,WNW,296,1.0,5.0,34,0.00,,---,0.00,VWS V14.01,2013-12-12 16:40:00,
2013-12-12 11:45:00,61.5,32.9,30.36,NW,326,0.0,5.0,34,0.00,,---,0.00,VWS V14.01,2013-12-12 16:45:00,
2013-12-12 11:50:00,61.2,31.1,30.36,WNW,288,1.0,6.0,32,0.00,,---,0.00,VWS V14.01,2013-12-12 16:50:00,
2013-12-12 11:55:00,61.5,29.0,30.36,North,0,1.0,6.0,29,0.00,,---,0.00,VWS V14.01,2013-12-12 16:55:00,
2013-12-12 12:00:00,61.6,32.2,30.34,South,189,2.0,3.0,33,0.00,,---,0.00,VWS V14.01,2013-12-12 17:00:00,
2013-12-12 12:05:00,61.8,30.1,30.34,North,354,1.0,6.0,30,0.00,,---,0.00,VWS V14.01,2013-12-12 17:05:00,
2013-12-12 12:10:00,61.8,30.9,30.34,North,359,1.0,6.0,31,0.00,,---,0.00,VWS V14.01,2013-12-12 17:10:00,
2013-12-12 12:15:00,62.3,30.5,30.34,NNW,333,1.0,6.0,30,0.00,,---,0.00,VWS V14.01,2013-12-12 17:15:00,
2013-12-12 12:20:00,62.3,28.8,30.34,West,281,1.0,6.0,28,0.00,,---,0.00,VWS V14.01,2013-12-12 17:20:00,
2013-12-12 12:25:00,62.3,28.8,30.34,West,267,5.0,6.0,28,0.00,,---,0.00,VWS V14.01,2013-12-12 17:25:00,
2013-12-12 12:30:00,62.3,28.8,30.33,North,7,1.0,1.0,28,0.00,,---,0.00,VWS V14.01,2013-12-12 17:30:00,
2013-12-12 12:35:00,62.3,27.9,30.33,WNW,295,3.0,4.0,27,0.00,,---,0.00,VWS V14.01,2013-12-12 17:35:00,
2013-12-12 12:40:00,62.4,26.1,30.33,NNE,17,1.0,5.0,25,0.00,,---,0.00,VWS V14.01,2013-12-12 17:40:00,
2013-12-12 12:45:00,62.7,26.4,30.32,West,274,1.0,5.0,25,0.00,,---,0.00,VWS V14.01,2013-12-12 17:45:00,
2013-12-12 12:50:00,62.6,27.3,30.32,WNW,294,1.0,6.0,26,0.00,,---,0.00,VWS V14.01,2013-12-12 17:50:00,
2013-12-12 12:55:00,62.6,29.1,30.32,NNW,332,0.0,6.0,28,0.00,,---,0.00,VWS V14.01,2013-12-12 17:55:00,
2013-12-12 13:00:00,62.6,30.8,30.31,WNW,289,1.0,1.0,30,0.00,,---,0.00,VWS V14.01,2013-12-12 18:00:00,
2013-12-12 13:05:00,62.9,29.3,30.31,North,0,0.0,2.0,28,0.00,,---,0.00,VWS V14.01,2013-12-12 18:05:00,
2013-12-12 13:10:00,62.9,27.5,30.31,NW,315,1.0,6.0,26,0.00,,---,0.00,VWS V14.01,2013-12-12 18:10:00,
2013-12-12 13:15:00,62.9,28.4,30.31,West,280,1.0,6.0,27,0.00,,---,0.00,VWS V14.01,2013-12-12 18:15:00,
2013-12-12 13:20:00,62.9,28.4,30.31,West,270,0.0,6.0,27,0.00,,---,0.00,VWS V14.01,2013-12-12 18:20:00,
2013-12-12 13:25:00,63.2,30.4,30.31,NW,320,1.0,6.0,29,0.00,,---,0.00,VWS V14.01,2013-12-12 18:25:00,
2013-12-12 13:30:00,63.5,31.5,30.30,NNW,329,1.0,1.0,30,0.00,,---,0.00,VWS V14.01,2013-12-12 18:30:00,
2013-12-12 13:35:00,63.7,31.7,30.30,NE,37,1.0,3.0,30,0.00,,---,0.00,VWS V14.01,2013-12-12 18:35:00,
2013-12-12 13:40:00,64.0,31.1,30.30,NW,323,1.0,3.0,29,0.00,,---,0.00,VWS V14.01,2013-12-12 18:40:00,
2013-12-12 13:45:00,63.9,33.5,30.29,NNE,27,1.0,3.0,32,0.00,,---,0.00,VWS V14.01,2013-12-12 18:45:00,
2013-12-12 13:50:00,64.0,32.8,30.29,NW,322,0.0,3.0,31,0.00,,---,0.00,VWS V14.01,2013-12-12 18:50:00,
2013-12-12 13:55:00,64.2,29.5,30.29,NW,316,0.0,3.0,27,0.00,,---,0.00,VWS V14.01,2013-12-12 18:55:00,
2013-12-12 14:00:00,64.2,29.5,30.29,North,11,1.0,1.0,27,0.00,,---,0.00,VWS V14.01,2013-12-12 19:00:00,
2013-12-12 14:04:00,63.7,29.1,30.29,NNW,332,1.0,2.0,27,0.00,,---,0.00,VWS V14.01,2013-12-12 19:04:00,
2013-12-12 14:09:00,63.9,38.5,30.29,NNE,14,1.0,3.0,39,0.00,,---,0.00,VWS V14.01,2013-12-12 19:09:00,
2013-12-12 14:14:00,63.5,36.1,30.28,NNE,14,0.0,3.0,36,0.00,,---,0.00,VWS V14.01,2013-12-12 19:14:00,
2013-12-12 14:19:00,63.4,36.0,30.28,NNW,342,1.0,3.0,36,0.00,,---,0.00,VWS V14.01,2013-12-12 19:19:00,
2013-12-12 14:24:00,63.5,38.8,30.28,North,7,1.0,3.0,40,0.00,,---,0.00,VWS V14.01,2013-12-12 19:24:00,
2013-12-12 14:29:00,63.5,36.1,30.28,North,349,1.0,1.0,36,0.00,,---,0.00,VWS V14.01,2013-12-12 19:29:00,
2013-12-12 14:30:00,63.1,39.0,30.28,NE,41,1.0,2.0,41,0.00,,---,0.00,VWS V14.01,2013-12-12 19:30:00,
2013-12-12 14:34:00,63.4,36.0,30.28,NNE,31,2.0,3.0,36,0.00,,---,0.00,VWS V14.01,2013-12-12 19:34:00,
2013-12-12 14:39:00,63.4,36.0,30.28,North,0,1.0,3.0,36,0.00,,---,0.00,VWS V14.01,2013-12-12 19:39:00,
2013-12-12 14:44:00,63.4,36.0,30.28,NNE,17,1.0,3.0,36,0.00,,---,0.00,VWS V14.01,2013-12-12 19:44:00,
2013-12-12 14:49:00,63.4,36.7,30.28,NNE,16,1.0,3.0,37,0.00,,---,0.00,VWS V14.01,2013-12-12 19:49:00,
2013-12-12 14:54:00,63.2,36.5,30.28,North,0,1.0,3.0,37,0.00,,---,0.00,VWS V14.01,2013-12-12 19:54:00,
2013-12-12 14:59:00,63.1,37.8,30.28,NE,54,1.0,3.0,39,0.00,,---,0.00,VWS V14.01,2013-12-12 19:59:00,
2013-12-12 15:00:00,59.6,38.8,30.28,North,0,0.0,5.0,46,0.00,,---,0.00,VWS V14.01,2013-12-12 20:00:00,
2013-12-12 15:04:00,63.2,36.5,30.28,NNE,14,0.0,2.0,37,0.00,,---,0.00,VWS V14.01,2013-12-12 20:04:00,
2013-12-12 15:09:00,63.2,37.2,30.28,NNE,14,0.0,2.0,38,0.00,,---,0.00,VWS V14.01,2013-12-12 20:09:00,
2013-12-12 15:14:00,62.9,34.8,30.28,North,0,1.0,2.0,35,0.00,,---,0.00,VWS V14.01,2013-12-12 20:14:00,
2013-12-12 15:19:00,62.6,36.7,30.28,North,0,1.0,2.0,38,0.00,,---,0.00,VWS V14.01,2013-12-12 20:19:00,
2013-12-12 15:24:00,62.9,38.9,30.28,NNE,16,0.0,2.0,41,0.00,,---,0.00,VWS V14.01,2013-12-12 20:24:00,
2013-12-12 15:29:00,63.1,39.0,30.28,NE,41,1.0,2.0,41,0.00,,---,0.00,VWS V14.01,2013-12-12 20:29:00,
2013-12-12 15:30:00,57.8,38.8,30.29,NNE,25,1.0,3.0,49,0.00,,---,0.00,VWS V14.01,2013-12-12 20:30:00,
2013-12-12 15:34:00,62.6,39.2,30.28,NNE,28,1.0,5.0,42,0.00,,---,0.00,VWS V14.01,2013-12-12 20:34:00,
2013-12-12 15:39:00,62.3,39.5,30.28,North,11,1.0,5.0,43,0.00,,---,0.00,VWS V14.01,2013-12-12 20:39:00,
2013-12-12 15:44:00,61.3,39.2,30.28,NNW,339,1.0,5.0,44,0.00,,---,0.00,VWS V14.01,2013-12-12 20:44:00,
2013-12-12 15:49:00,60.5,37.9,30.28,North,0,1.0,5.0,43,0.00,,---,0.00,VWS V14.01,2013-12-12 20:49:00,
2013-12-12 15:54:00,60.1,39.3,30.28,North,349,1.0,5.0,46,0.00,,---,0.00,VWS V14.01,2013-12-12 20:54:00,
2013-12-12 15:59:00,59.6,38.8,30.28,North,0,0.0,5.0,46,0.00,,---,0.00,VWS V14.01,2013-12-12 20:59:00,
2013-12-12 16:00:00,56.7,38.3,30.30,North,3,0.0,3.0,50,0.00,,---,0.00,VWS V14.01,2013-12-12 21:00:00,
2013-12-12 16:04:00,59.2,38.5,30.28,North,3,1.0,3.0,46,0.00,,---,0.00,VWS V14.01,2013-12-12 21:04:00,
2013-12-12 16:09:00,59.0,39.4,30.28,NNE,18,2.0,3.0,48,0.00,,---,0.00,VWS V14.01,2013-12-12 21:09:00,
2013-12-12 16:14:00,58.7,39.1,30.28,NE,38,2.0,3.0,48,0.00,,---,0.00,VWS V14.01,2013-12-12 21:14:00,
2013-12-12 16:19:00,58.3,38.7,30.28,NNE,25,2.0,3.0,48,0.00,,---,0.00,VWS V14.01,2013-12-12 21:19:00,
2013-12-12 16:24:00,58.1,37.5,30.28,North,0,2.0,3.0,46,0.00,,---,0.00,VWS V14.01,2013-12-12 21:24:00,
2013-12-12 16:25:00,58.1,37.5,30.28,NE,37,0.0,3.0,46,0.00,,---,0.00,VWS V14.01,2013-12-12 21:25:00,
2013-12-12 16:30:00,57.8,38.8,30.29,NNE,25,0.0,1.0,49,0.00,,---,0.00,VWS V14.01,2013-12-12 21:30:00,
2013-12-12 16:35:00,57.6,38.6,30.29,NNE,17,1.0,1.0,49,0.00,,---,0.00,VWS V14.01,2013-12-12 21:35:00,
2013-12-12 16:40:00,57.3,38.3,30.29,North,0,0.0,2.0,49,0.00,,---,0.00,VWS V14.01,2013-12-12 21:40:00,
2013-12-12 16:45:00,57.2,38.8,30.30,WNW,285,0.0,2.0,50,0.00,,---,0.00,VWS V14.01,2013-12-12 21:45:00,
2013-12-12 16:50:00,57.0,38.6,30.30,North,7,3.0,3.0,50,0.00,,---,0.00,VWS V14.01,2013-12-12 21:50:00,
2013-12-12 16:55:00,56.9,38.5,30.30,North,4,0.0,3.0,50,0.00,,---,0.00,VWS V14.01,2013-12-12 21:55:00,
2013-12-12 17:00:00,56.7,38.3,30.30,North,3,0.0,0.0,50,0.00,,---,0.00,VWS V14.01,2013-12-12 22:00:00,
2013-12-12 17:05:00,56.5,39.1,30.30,North,356,0.0,1.0,52,0.00,,---,0.00,VWS V14.01,2013-12-12 22:05:00,
2013-12-12 17:10:00,56.3,39.4,30.30,North,357,0.0,1.0,53,0.00,,---,0.00,VWS V14.01,2013-12-12 22:10:00,
2013-12-12 17:15:00,56.0,39.6,30.31,NE,37,1.0,1.0,54,0.00,,---,0.00,VWS V14.01,2013-12-12 22:15:00,
2013-12-12 17:20:00,55.7,40.3,30.31,NNE,27,0.0,1.0,56,0.00,,---,0.00,VWS V14.01,2013-12-12 22:20:00,
2013-12-12 17:25:00,55.4,40.0,30.31,NNE,27,0.0,1.0,56,0.00,,---,0.00,VWS V14.01,2013-12-12 22:25:00,
2013-12-12 17:30:00,55.1,40.6,30.31,NNE,24,0.0,0.0,58,0.00,,---,0.00,VWS V14.01,2013-12-12 22:30:00,
2013-12-12 17:35:00,54.7,40.7,30.31,ENE,78,0.0,1.0,59,0.00,,---,0.00,VWS V14.01,2013-12-12 22:35:00,
2013-12-12 17:40:00,54.4,40.8,30.31,ENE,78,0.0,1.0,60,0.00,,---,0.00,VWS V14.01,2013-12-12 22:40:00,
2013-12-12 17:45:00,54.1,41.0,30.31,ENE,78,1.0,1.0,61,0.00,,---,0.00,VWS V14.01,2013-12-12 22:45:00,
2013-12-12 17:50:00,53.9,40.8,30.31,ENE,78,0.0,1.0,61,0.00,,---,0.00,VWS V14.01,2013-12-12 22:50:00,
2013-12-12 17:54:00,53.8,41.1,30.31,NNE,32,1.0,1.0,62,0.00,,---,0.00,VWS V14.01,2013-12-12 22:54:00,
2013-12-12 18:00:00,53.5,41.2,30.32,NNE,32,0.0,0.0,63,0.00,,---,0.00,VWS V14.01,2013-12-12 23:00:00,
2013-12-12 18:05:00,53.2,41.3,30.32,NNE,32,0.0,0.0,64,0.00,,---,0.00,VWS V14.01,2013-12-12 23:05:00,
2013-12-12 18:10:00,52.9,41.5,30.32,NNE,32,0.0,1.0,65,0.00,,---,0.00,VWS V14.01,2013-12-12 23:10:00,
2013-12-12 18:15:00,52.6,41.2,30.32,NNE,32,0.0,1.0,65,0.00,,---,0.00,VWS V14.01,2013-12-12 23:15:00,
2013-12-12 18:20:00,52.3,40.9,30.32,NNE,32,0.0,1.0,65,0.00,,---,0.00,VWS V14.01,2013-12-12 23:20:00,
2013-12-12 18:25:00,52.2,41.6,30.32,NNE,32,0.0,1.0,67,0.00,,---,0.00,VWS V14.01,2013-12-12 23:25:00,
2013-12-12 18:30:00,52.0,41.4,30.33,NNE,32,0.0,0.0,67,0.00,,---,0.00,VWS V14.01,2013-12-12 23:30:00,
2013-12-12 18:35:00,51.9,41.3,30.33,NNE,32,0.0,0.0,67,0.00,,---,0.00,VWS V14.01,2013-12-12 23:35:00,
2013-12-12 18:40:00,51.9,41.7,30.33,NNE,32,0.0,1.0,68,0.00,,---,0.00,VWS V14.01,2013-12-12 23:40:00,
2013-12-12 18:45:00,51.9,41.7,30.33,NNE,28,1.0,1.0,68,0.00,,---,0.00,VWS V14.01,2013-12-12 23:45:00,
2013-12-12 18:50:00,52.2,41.6,30.33,NNE,28,0.0,1.0,67,0.00,,---,0.00,VWS V14.01,2013-12-12 23:50:00,
2013-12-12 18:55:00,52.2,41.6,30.33,NNE,28,0.0,1.0,67,0.00,,---,0.00,VWS V14.01,2013-12-12 23:55:00,
2013-12-12 18:59:00,52.0,41.4,30.34,NNE,28,0.0,1.0,67,0.00,,---,0.00,VWS V14.01,2013-12-12 23:59:00,
2013-12-12 19:04:00,52.2,41.2,30.34,NE,38,0.0,1.0,66,0.00,,---,0.00,VWS V14.01,2013-12-13 00:04:00,
2013-12-12 19:09:00,52.3,41.3,30.34,NE,38,0.0,1.0,66,0.00,,---,0.00,VWS V14.01,2013-12-13 00:09:00,
2013-12-12 19:14:00,52.5,41.5,30.34,NE,38,0.0,1.0,66,0.00,,---,0.00,VWS V14.01,2013-12-13 00:14:00,
2013-12-12 19:20:00,52.2,41.2,30.34,NE,38,0.0,1.0,66,0.00,,---,0.00,VWS V14.01,2013-12-13 00:20:00,
2013-12-12 19:25:00,52.0,41.4,30.34,NE,38,0.0,1.0,67,0.00,,---,0.00,VWS V14.01,2013-12-13 00:25:00,
2013-12-12 19:30:00,52.0,41.4,30.35,North,356,0.0,1.0,67,0.00,,---,0.00,VWS V14.01,2013-12-13 00:30:00,
2013-12-12 19:35:00,52.2,41.6,30.35,North,356,0.0,1.0,67,0.00,,---,0.00,VWS V14.01,2013-12-13 00:35:00,
2013-12-12 19:40:00,52.2,41.6,30.35,NE,35,0.0,1.0,67,0.00,,---,0.00,VWS V14.01,2013-12-13 00:40:00,
2013-12-12 19:45:00,52.3,40.9,30.35,NNE,25,0.0,1.0,65,0.00,,---,0.00,VWS V14.01,2013-12-13 00:45:00,
2013-12-12 19:50:00,52.3,41.3,30.35,NNE,25,0.0,1.0,66,0.00,,---,0.00,VWS V14.01,2013-12-13 00:50:00,
2013-12-12 19:55:00,52.3,40.9,30.35,NNE,25,0.0,1.0,65,0.00,,---,0.00,VWS V14.01,2013-12-13 00:55:00,
2013-12-12 20:00:00,52.2,41.2,30.36,North,359,0.0,1.0,66,0.00,,---,0.00,VWS V14.01,2013-12-13 01:00:00,
2013-12-12 20:05:00,52.2,41.2,30.36,North,0,0.0,2.0,66,0.00,,---,0.00,VWS V14.01,2013-12-13 01:05:00,
2013-12-12 20:10:00,52.3,40.9,30.36,North,0,0.0,2.0,65,0.00,,---,0.00,VWS V14.01,2013-12-13 01:10:00,
2013-12-12 20:15:00,52.5,41.1,30.36,North,0,0.0,2.0,65,0.00,,---,0.00,VWS V14.01,2013-12-13 01:15:00,
2013-12-12 20:20:00,52.8,40.6,30.36,North,352,0.0,2.0,63,0.00,,---,0.00,VWS V14.01,2013-12-13 01:20:00,
2013-12-12 20:25:00,52.8,40.6,30.36,North,352,0.0,2.0,63,0.00,,---,0.00,VWS V14.01,2013-12-13 01:25:00,
2013-12-12 20:30:00,52.8,40.6,30.36,North,356,0.0,0.0,63,0.00,,---,0.00,VWS V14.01,2013-12-13 01:30:00,
2013-12-12 20:35:00,52.8,40.6,30.36,North,0,0.0,2.0,63,0.00,,---,0.00,VWS V14.01,2013-12-13 01:35:00,
2013-12-12 20:40:00,52.9,40.2,30.36,NE,34,1.0,2.0,62,0.00,,---,0.00,VWS V14.01,2013-12-13 01:40:00,
2013-12-12 20:45:00,52.9,40.2,30.37,NNE,20,1.0,2.0,62,0.00,,---,0.00,VWS V14.01,2013-12-13 01:45:00,
2013-12-12 20:50:00,53.1,39.6,30.37,NNE,18,2.0,2.0,60,0.00,,---,0.00,VWS V14.01,2013-12-13 01:50:00,
2013-12-12 20:55:00,53.1,39.6,30.37,North,1,0.0,2.0,60,0.00,,---,0.00,VWS V14.01,2013-12-13 01:55:00,
2013-12-12 21:00:00,52.9,39.4,30.36,North,1,0.0,2.0,60,0.00,,---,0.00,VWS V14.01,2013-12-13 02:00:00,
2013-12-12 21:05:00,52.6,39.5,30.36,North,1,0.0,2.0,61,0.00,,---,0.00,VWS V14.01,2013-12-13 02:05:00,
2013-12-12 21:10:00,52.5,39.5,30.36,North,1,0.0,2.0,61,0.00,,---,0.00,VWS V14.01,2013-12-13 02:10:00,
2013-12-12 21:15:00,52.3,39.7,30.36,NNE,18,0.0,2.0,62,0.00,,---,0.00,VWS V14.01,2013-12-13 02:15:00,
2013-12-12 21:20:00,52.2,39.6,30.36,NNE,18,0.0,2.0,62,0.00,,---,0.00,VWS V14.01,2013-12-13 02:20:00,
2013-12-12 21:25:00,52.3,39.3,30.36,NNE,18,0.0,2.0,61,0.00,,---,0.00,VWS V14.01,2013-12-13 02:25:00,
2013-12-12 21:30:00,52.3,39.3,30.36,NNE,18,0.0,1.0,61,0.00,,---,0.00,VWS V14.01,2013-12-13 02:30:00,
2013-12-12 21:35:00,52.2,39.2,30.36,North,6,1.0,2.0,61,0.00,,---,0.00,VWS V14.01,2013-12-13 02:35:00,
2013-12-12 21:40:00,52.3,39.3,30.36,North,4,0.0,2.0,61,0.00,,---,0.00,VWS V14.01,2013-12-13 02:40:00,
2013-12-12 21:45:00,52.2,39.2,30.36,North,4,0.0,2.0,61,0.00,,---,0.00,VWS V14.01,2013-12-13 02:45:00,
2013-12-12 21:50:00,52.2,39.2,30.36,North,4,0.0,2.0,61,0.00,,---,0.00,VWS V14.01,2013-12-13 02:50:00,
2013-12-12 21:55:00,52.2,39.2,30.36,North,4,0.0,2.0,61,0.00,,---,0.00,VWS V14.01,2013-12-13 02:55:00,
2013-12-12 22:00:00,52.0,39.4,30.36,North,4,0.0,0.0,62,0.00,,---,0.00,VWS V14.01,2013-12-13 03:00:00,
2013-12-12 22:05:00,51.9,39.3,30.36,NE,44,0.0,2.0,62,0.00,,---,0.00,VWS V14.01,2013-12-13 03:05:00,
2013-12-12 22:10:00,52.2,39.2,30.36,North,11,0.0,2.0,61,0.00,,---,0.00,VWS V14.01,2013-12-13 03:10:00,
2013-12-12 22:15:00,52.3,38.8,30.35,NNE,21,1.0,2.0,60,0.00,,---,0.00,VWS V14.01,2013-12-13 03:15:00,
2013-12-12 22:20:00,52.3,39.3,30.35,NNE,21,0.0,2.0,61,0.00,,---,0.00,VWS V14.01,2013-12-13 03:20:00,
2013-12-12 22:25:00,52.2,39.6,30.35,NE,51,1.0,2.0,62,0.00,,---,0.00,VWS V14.01,2013-12-13 03:25:00,
2013-12-12 22:30:00,52.3,39.3,30.34,NE,40,1.0,1.0,61,0.00,,---,0.00,VWS V14.01,2013-12-13 03:30:00,
2013-12-12 22:35:00,52.3,39.3,30.34,NE,40,0.0,1.0,61,0.00,,---,0.00,VWS V14.01,2013-12-13 03:35:00,
2013-12-12 22:40:00,52.5,39.5,30.34,North,4,0.0,2.0,61,0.00,,---,0.00,VWS V14.01,2013-12-13 03:40:00,
2013-12-12 22:45:00,52.5,39.9,30.34,North,4,1.0,2.0,62,0.00,,---,0.00,VWS V14.01,2013-12-13 03:45:00,
2013-12-12 22:50:00,52.3,39.7,30.34,North,4,0.0,2.0,62,0.00,,---,0.00,VWS V14.01,2013-12-13 03:50:00,
2013-12-12 22:55:00,52.2,40.4,30.34,North,4,0.0,2.0,64,0.00,,---,0.00,VWS V14.01,2013-12-13 03:55:00,
2013-12-12 23:00:00,51.9,40.5,30.34,NNE,14,0.0,1.0,65,0.00,,---,0.00,VWS V14.01,2013-12-13 04:00:00,
2013-12-12 23:05:00,51.7,40.3,30.34,NNE,20,0.0,1.0,65,0.00,,---,0.00,VWS V14.01,2013-12-13 04:05:00,
2013-12-12 23:10:00,51.7,40.7,30.34,NNE,20,0.0,1.0,66,0.00,,---,0.00,VWS V14.01,2013-12-13 04:10:00,
2013-12-12 23:15:00,51.7,40.7,30.34,NNE,20,0.0,1.0,66,0.00,,---,0.00,VWS V14.01,2013-12-13 04:15:00,
2013-12-12 23:20:00,51.7,41.1,30.34,NNE,20,0.0,1.0,67,0.00,,---,0.00,VWS V14.01,2013-12-13 04:20:00,
2013-12-12 23:25:00,51.6,41.4,30.34,NNE,20,0.0,1.0,68,0.00,,---,0.00,VWS V14.01,2013-12-13 04:25:00,
2013-12-12 23:30:00,51.3,41.5,30.33,NE,34,0.0,0.0,69,0.00,,---,0.00,VWS V14.01,2013-12-13 04:30:00,
2013-12-12 23:35:00,51.3,41.9,30.33,NE,34,0.0,1.0,70,0.00,,---,0.00,VWS V14.01,2013-12-13 04:35:00,
2013-12-12 23:40:00,51.1,42.0,30.33,NE,34,0.0,1.0,71,0.00,,---,0.00,VWS V14.01,2013-12-13 04:40:00,
2013-12-12 23:45:00,51.0,42.3,30.33,NE,34,0.0,1.0,72,0.00,,---,0.00,VWS V14.01,2013-12-13 04:45:00,
2013-12-12 23:50:00,50.8,42.1,30.33,NE,34,0.0,1.0,72,0.00,,---,0.00,VWS V14.01,2013-12-13 04:50:00,
2013-12-12 23:55:00,50.8,42.5,30.33,NE,34,0.0,1.0,73,0.00,,---,0.00,VWS V14.01,2013-12-13 04:55:00,